Location: Lafig�re
(44.4503°N, 4.0357°E)
Time: 16:42:42
(UTC+00:00)

MOS 1 Rocket - Pass Details

Date: 24 September 2020
Orbit: 614 x 831 km, 97.4° (Epoch: 25 October)

Event Time Altitude Azimuth Distance (km) Brightness Sun altitude
Rises 18:57:16 0° 11° (NNE) 2,956 6.6 -15.0°
Reaches altitude 10° 18:59:31 10° 11° (NNE) 2,021 5.7 -15.4°
Maximum altitude 19:03:53 86° 283° (WNW) 626 3.0 -16.2°
Drops below altitude 10° 19:08:09 10° 195° (SSW) 1,967 5.6 -16.9°
Sets 19:10:18 0° 195° (SSW) 2,869 6.5 -17.3°
